STARLINK-34568

Last updated on Sat Jul 19 2025 00:02:08 GMT+0000 (Coordinated Universal Time)

1 64717U 25142X 25199.58335648 -.01206665 00000+0 -21178-1 0 9994 2 64717 69.9999 194.6226 0004153 280.4725 190.8485 15.53397760 4161
UTC large
Height (km)
Speed (km/s)
/
Latitude / Longitude
Inclination (degrees)
Orbital Period (minutes)
Azimuth
Elevation
Range (km)
Doppler Factor

Next 0 passes for location: London (51.5072 / 0.1276)

Sorry there are no passes over London.